COSMOS 2251 DEB, 35439

Orbit data source: Space-Track

COSMOS 2251 DEB, 35439 is space debris in LEO originally from a launch on Wed, 16 Jun 1993 UTC launched from the Plesetsk Missile And Space Complex (PKMTR). The debris from Iridium 33, an American commercial communications satellite, has been tracked extensively since its accidental collision with the defunct Russian satellite Cosmos 2251 in 2009. This event, occurring at high speed in low Earth orbit (LEO), generated thousands of pieces of space debris, significantly increasing the risk of further collisions. The Iridium 33 debris cloud has impacted space traffic management and orbital debris mitigation strategies, making it a subject of ongoing study in space situational awareness.

Loading next visibility...
Identifier
35439, 1993-036AKH
Orbit
LEO
Country
Flag of CISCIS
Related business
Manufacturer
Unknown
Mission
Spacecraft
Bus & Motor
Unknown
Mass
Unknown
Launch date (UTC)
1993-06-16 (33 years ago)
Launch vehicle
Unknown
Launch site
Plesetsk Missile And Space Complex (PKMTR)
Object type
Payload
Rocket body
Debris
Shape & HBR
Unknown shape, 0.1 m
Radar Cross Section
Small (<0.1 m²)

Expand to show TLE details & history
Last TLE update: 1 day ago

TLE from 1 day ago
0 COSMOS 2251 DEB
1 35439U 93036AKH 26122.63303764  .00001378  00000-0  83997-3 0  9998
2 35439  74.0168 253.1573 0241357  31.1148 349.3267 13.93537331859237
Epoch: 2026-05-02T15:11Z
TLE epoch observation values (Epoch: 2026-05-02T15:11:34.452Z)
Latitude
19.11934°
Longitude
170.38333°
Altitude
745.454 km
Speed
7.572 km/s
True Right ascension
17h 15m 18s
True Declination
19° 00' 47"
Sunlit
Object was in full shadow at epoch
Visualization orbit readout
Latitude
Unknown
Longitude
Unknown
Altitude
Unknown
Speed
Unknown
Apparent Right ascension
Unknown
Apparent Declination
Unknown
Sunlit
N/A
Visualization observer readout
Local Sidereal Time
04:00:44
Azimuth
Unknown
Elevation
Unknown
Doppler factor
Unknown
Orbital elements
Apogee altitude
1,089.931 km
Perigee altitude
737.932 km
Semi-major axis
7,292.068 km
Eccentricity
0.02414
Inclination
74.0168°
RAAN
253.1573°
Arg. of periapsis
31.1148°
True anomaly
348.79884°
Mean anomaly
349.3267°
Eccentric anomaly
349.06436°
Mean motion
3.48552 °/min
Orbital period
103.28 mins
BSTAR
0.00083997

Documentation

Showing up to 5 results
|